Evans Head Observation History
Time Wind Speed Temp Pressure Rel. Hum Rain
02/04:30pm N 3-5 kts 19.3°c 1019.7 hPa 63% 0.0mm
02/04:00pm NNW 3-6 kts 20.4°c 1019.7 hPa 59% 0.0mm
02/03:30pm NNW 4-9 kts 21.6°c 1019.4 hPa 57% 0.0mm
02/03:00pm NNW 6-9 kts 22.0°c 1019.4 hPa 56% 0.0mm
02/02:30pm NNW 6-11 kts 23.1°c 1019.5 hPa 53% 0.0mm
02/02:00pm NNW 6-13 kts 23.5°c 1019.6 hPa 53% 0.0mm
02/01:30pm NNW 8-13 kts 23.3°c 1019.8 hPa 53% 0.0mm
02/01:00pm NW 6-10 kts 23.2°c 1020.0 hPa 51% 0.0mm
02/12:30pm NNW 9-17 kts 22.6°c 1020.4 hPa 54% 0.0mm
02/12:00pm NNW 9-14 kts 22.5°c 1021.0 hPa 57% 0.0mm
02/11:30am NW 8-14 kts 21.5°c 1021.6 hPa 58% 0.0mm
02/11:00am NNW 9-14 kts 21.0°c 1022.0 hPa 59% 0.0mm
02/10:30am NNW 7-13 kts 20.4°c 1022.2 hPa 63% 0.0mm
02/10:00am NNW 7-12 kts 19.1°c 1022.5 hPa 68% 0.0mm
02/09:30am NNW 9-15 kts 17.4°c 1022.7 hPa 72% 0.0mm
02/09:00am NNW 7-11 kts 16.4°c 1022.7 hPa 78% 0.2mm
02/08:30am NNW 6-9 kts 15.3°c 1022.6 hPa 82% 0.2mm
02/08:00am NNW 8-13 kts 15.1°c 1022.5 hPa 82% 0.2mm
02/07:30am NNW 7-13 kts 14.1°c 1022.2 hPa 86% 0.2mm
02/07:00am NW 8-14 kts 13.8°c 1022.0 hPa 85% 0.2mm
02/06:30am NNW 8-13 kts 13.4°c 1021.6 hPa 86% 0.2mm
02/06:00am NNW 9-13 kts 13.8°c 1021.3 hPa 86% 0.2mm
02/05:30am NNW 7-13 kts 13.6°c 1021.2 hPa 86% 0.2mm
02/05:00am NNW 7-12 kts 12.8°c 1020.8 hPa 89% 0.2mm
02/04:30am NW 5-9 kts 12.7°c 1020.7 hPa 85% 0.2mm
02/04:00am CALM 0-3 kts 13.1°c 1020.6 hPa 82% 0.2mm
02/03:30am WNW 4-8 kts 13.6°c 1020.6 hPa 82% 0.2mm
02/03:00am SW 4-6 kts 13.0°c 1020.6 hPa 88% 0.0mm
02/02:30am NNW 5-7 kts 12.2°c 1020.6 hPa 92% 0.0mm
02/02:00am NNW 5-8 kts 12.3°c 1020.8 hPa 90% 0.0mm
02/01:30am NW 3-6 kts 12.7°c 1021.2 hPa 91% 0.0mm
02/01:00am NNW 5-8 kts 12.4°c 1021.3 hPa 92% 0.0mm
02/12:30am NNW 6-9 kts 12.4°c 1021.4 hPa 92% 0.0mm
02/12:00am NNW 7-11 kts 12.6°c 1021.5 hPa 92% 0.0mm
Time Wind Speed Temp Pressure Rel. Hum Rain
01/11:30pm NNW 9-13 kts 12.7°c 1021.5 hPa 92% 0.0mm
01/11:00pm NNW 8-11 kts 12.7°c 1022.0 hPa 92% 0.0mm
01/10:30pm N 8-11 kts 12.8°c 1021.7 hPa 92% 0.0mm
01/10:00pm N 8-11 kts 12.9°c 1021.9 hPa 91% 0.0mm
01/09:30pm N 8-11 kts 13.0°c 1022.2 hPa 89% 0.0mm
01/09:00pm N 9-13 kts 13.6°c 1022.1 hPa 87% 0.0mm
01/08:30pm N 9-13 kts 13.5°c 1022.0 hPa 89% 0.0mm
01/08:00pm N 8-12 kts 13.5°c 1021.9 hPa 89% 0.0mm
01/07:30pm N 8-12 kts 13.5°c 1021.6 hPa 90% 0.0mm
01/07:00pm N 8-11 kts 13.5°c 1021.4 hPa 89% 0.0mm
01/06:30pm N 7-10 kts 13.6°c 1021.3 hPa 88% 0.0mm
01/06:00pm N 6-9 kts 13.8°c 1021.0 hPa 84% 0.0mm
01/05:30pm N 7-9 kts 14.7°c 1020.6 hPa 78% 0.0mm
01/05:00pm N 7-9 kts 15.7°c 1020.3 hPa 74% 0.0mm
01/04:30pm NNE 5-7 kts 16.7°c 1019.9 hPa 71% 0.0mm
01/04:00pm NNE 6-10 kts 17.9°c 1020.0 hPa 67% 0.0mm
01/03:30pm ENE 6-10 kts 18.4°c 1019.9 hPa 66% 0.0mm
01/03:00pm ENE 7-10 kts 18.6°c 1020.1 hPa 64% 0.0mm
01/02:30pm E 5-7 kts 19.7°c 1020.3 hPa 63% 0.0mm
01/02:00pm NE 4-7 kts 20.3°c 1020.5 hPa 56% 0.0mm
01/01:30pm NE 4-8 kts 21.4°c 1020.8 hPa 60% 0.0mm
01/01:00pm NE 4-6 kts 19.7°c 1021.2 hPa 63% 0.0mm
01/12:30pm ENE 3-5 kts 19.5°c 1021.6 hPa 68% 0.0mm
01/12:00pm SE 5-7 kts 19.1°c 1021.9 hPa 72% 0.0mm
01/11:30am NNW 4-6 kts 20.6°c 1022.3 hPa 59% 0.0mm
01/11:00am N 4-6 kts 20.3°c 1022.9 hPa 60% 0.0mm
01/10:30am NNE 1-4 kts 18.3°c 1023.3 hPa 69% 0.0mm
01/10:00am NNW 3-5 kts 18.3°c 1024.0 hPa 73% 0.0mm
01/09:30am W 3-4 kts 16.2°c 1024.1 hPa 77% 0.0mm
01/09:00am W 5-7 kts 14.6°c 1024.1 hPa 82% 0.0mm
01/08:30am WNW 5-7 kts 12.9°c 1024.1 hPa 92% 0.0mm
01/08:00am WNW 3-7 kts 11.4°c 1024.1 hPa 96% 0.0mm
01/07:30am WNW 5-7 kts 10.2°c 1023.8 hPa 96% 0.0mm
01/07:00am NW 5-6 kts 8.9°c 1023.5 hPa 95% 0.0mm
01/06:30am WNW 6-8 kts 10.3°c 1023.2 hPa 95% 0.0mm
01/06:00am NNW 5 kts 8.6°c 1023.0 hPa 94% 0.0mm
01/05:30am WNW 5-7 kts 9.5°c 1022.6 hPa 94% 0.0mm
01/05:00am WNW 5-7 kts 9.3°c 1022.3 hPa 91% 0.0mm
01/04:30am WNW 7-8 kts 10.9°c 1022.2 hPa 93% 0.0mm
01/04:00am WNW 5-7 kts 10.1°c 1022.3 hPa 90% 0.0mm
01/03:30am W 7-8 kts 12.0°c 1022.4 hPa 88% 0.0mm
01/03:00am W 7-9 kts 12.3°c 1022.6 hPa 88% 0.0mm
01/02:30am W 7-9 kts 12.4°c 1022.7 hPa 87% 0.0mm
01/02:00am W 7-8 kts 12.8°c 1022.6 hPa 85% 0.0mm
01/01:30am W 7-9 kts 12.2°c 1022.8 hPa 88% 0.0mm
01/01:00am WSW 5-7 kts 13.3°c 1023.1 hPa 79% 0.0mm
01/12:30am W 6-7 kts 13.9°c 1023.1 hPa 80% 0.0mm
01/12:00am W 7-8 kts 14.0°c 1023.5 hPa 79% 0.0mm
Time Wind Speed Temp Pressure Rel. Hum Rain
30/11:30pm W 7-8 kts 14.3°c 1023.8 hPa 77% 0.0mm
30/11:00pm W 5-6 kts 14.8°c 1023.9 hPa 76% 0.0mm
30/10:30pm W 5-7 kts 14.6°c 1024.0 hPa 76% 0.0mm
30/10:00pm W 6-7 kts 14.8°c 1023.9 hPa 76% 0.0mm
30/09:30pm W 3-6 kts 14.7°c 1023.9 hPa 75% 0.0mm
30/09:00pm CALM 0 kts 15.1°c 1023.6 hPa 75% 0.0mm
30/08:30pm CALM 0-1 kts 15.4°c 1023.6 hPa 73% 0.0mm
30/08:00pm CALM 0 kts 15.1°c 1023.8 hPa 75% 0.0mm
30/07:30pm SSE 4-5 kts 14.9°c 1023.7 hPa 78% 0.0mm
30/07:00pm SSE 5 kts 14.5°c 1023.5 hPa 78% 0.0mm
30/06:30pm SSW 4-5 kts 14.6°c 1023.5 hPa 80% 0.0mm
30/06:00pm S 5-7 kts 14.3°c 1023.2 hPa 82% 0.0mm
30/05:30pm SSE 5-6 kts 14.6°c 1022.8 hPa 81% 0.0mm
30/05:00pm SE 7-9 kts 15.1°c 1022.6 hPa 80% 0.0mm
30/04:30pm SSE 5-8 kts 15.6°c 1022.6 hPa 77% 0.0mm
30/04:00pm S 5-6 kts 16.6°c 1022.6 hPa 72% 0.0mm
30/03:30pm SSE 5-6 kts 17.3°c 1022.7 hPa 69% 0.0mm
30/03:00pm SSE 7-10 kts 17.7°c 1022.8 hPa 69% 0.0mm
30/02:30pm SSE 7-9 kts 18.3°c 1022.8 hPa 70% 0.0mm
30/02:00pm S 7-10 kts 18.4°c 1023.0 hPa 65% 0.0mm
30/01:30pm SSE 7-10 kts 18.9°c 1023.1 hPa 64% 0.0mm
30/01:00pm S 7-10 kts 18.1°c 1023.7 hPa 63% 0.0mm
30/12:30pm WSW 4-5 kts 17.1°c 1024.0 hPa 71% 0.0mm
30/12:00pm S 7-9 kts 16.6°c 1024.6 hPa 73% 0.0mm
30/11:30am S 10-15 kts 17.9°c 1024.9 hPa 67% 0.0mm
30/11:00am SSW 9-15 kts 17.7°c 1025.3 hPa 67% 0.0mm
30/10:30am SSW 7-11 kts 17.5°c 1025.4 hPa 70% 0.0mm
30/10:00am SSW 7-10 kts 16.7°c 1025.6 hPa 70% 0.0mm
30/09:30am SW 7-11 kts 15.7°c 1025.7 hPa 72% 0.0mm
30/09:00am SSW 8-12 kts 15.2°c 1025.8 hPa 73% 0.0mm
30/08:30am WSW 7-10 kts 13.2°c 1025.6 hPa 78% 0.0mm
30/08:00am WSW 6-10 kts 12.2°c 1025.3 hPa 81% 0.0mm
30/07:30am W 5-8 kts 12.1°c 1025.3 hPa 81% 0.0mm
30/07:00am WSW 7-10 kts 12.1°c 1025.0 hPa 82% 0.0mm
30/06:30am NW 6-8 kts 11.4°c 1024.7 hPa 88% 0.0mm
30/06:00am WSW 7-9 kts 11.9°c 1024.5 hPa 84% 0.0mm
30/05:30am W 8-11 kts 11.7°c 1024.0 hPa 86% 0.0mm
30/05:00am WSW 7-9 kts 11.6°c 1024.0 hPa 87% 0.0mm
30/04:30am WSW 9-11 kts 12.0°c 1023.9 hPa 85% 0.0mm
30/04:00am W 7-9 kts 12.2°c 1023.9 hPa 85% 0.0mm
30/03:30am W 7-9 kts 12.0°c 1023.9 hPa 88% 0.0mm
30/03:00am W 7-8 kts 11.7°c 1024.1 hPa 91% 0.0mm
30/02:30am W 6-8 kts 12.1°c 1024.3 hPa 89% 0.0mm
30/02:00am W 6-8 kts 11.9°c 1024.4 hPa 91% 0.0mm
30/01:30am WSW 5-9 kts 12.1°c 1025.2 hPa 91% 0.0mm
30/01:00am NNW 5-6 kts 11.9°c 1025.8 hPa 94% 0.0mm
30/12:30am NNW 5-8 kts 11.8°c 1025.5 hPa 93% 0.0mm
30/12:00am WNW 7-8 kts 11.8°c 1025.3 hPa 92% 0.0mm